User: anonymous   Login
Location: Unspecified
(0.0000°N, 0.0000°E)
Time: 05:15:15
(UTC+00:00)
Language:

Tiungsat 1 - Orbit

View from above orbital plane
View from above orbital plane
View from above satellite
View from above satellite

Ground track
Ground track

The orbit data is extracted from the following two-line orbital elements,

1 26548U 00057D   19348.41760995 -.00000001  00000-0  16651-4 0  9998
2 26548  64.5518  37.1534 0050419 272.7432  86.7907 14.89384261 41643
Epoch (UTC): 14 December 2019 10:01:21
Eccentricity: 0.0050419
inclination: 64.5518°
perigee height: 564 km
apogee height: 635 km
right ascension of ascending node: 37.1534°
argument of perigee: 272.7432°
revolutions per day: 14.89384261
mean anomaly at epoch: 86.7907°
orbit number at epoch: 4164

The dashed part of the orbit path shows where the satellite is in the earth's shadow,  

DLR